OpenBCM V1.08-5-g2f4a (Linux)

Packet Radio Mailbox

IZ3LSV

[San Dona' di P. JN]

 Login: GUEST





  
I0OJJ  > KEPS     02.03.25 09:06l 326 Lines 15593 Bytes #108 (0) @ AMSAT
BID : ORB25060.1
Read: GUEST
Subj: 2Line Orbital Elements 25060.AMSAT
Path: IZ3LSV<DB0ERF<DK0WUE<PD0LPM<PI8ZTM<I0OJJ
Sent: 250301/0345z @:I0OJJ.ITA.EU [Rome] obcm1.08-6-g5b69
From: I0OJJ @ I0OJJ.ITA.EU (Gustavo)
To:   KEPS @ AMSAT
X-Info: This message was generated automatically


QST de W1STR

AMSAT Orbital Elements for Amateur Satellites in TLE Format
From Orbital Analysis Office
New England Sci-Tech STEM Education Center
Natick, MA March 01, 2025
To all radio amateurs


These element sets describe the orbits of various satellites 
in use by the amateur radio community. For details see:
www.amsat.org/keplerian-elements-formats/

A daily update of element sets is available at:
www.amsat.org/tle/daily-bulletin.txt
or without bulletin text:
www.amsat.org/tle/dailytle.txt


AO-07
1 07530U 74089B   25059.55357278 -.00000038  00000-0  51129-4 0  9990
2 07530 101.9946  62.7383 0011981 315.9572 160.8970 12.53686727301167
UO-11
1 14781U 84021B   25059.54171254  .00004062  00000-0  43945-3 0  9996
2 14781  97.7422  28.0194 0006615 322.1419  37.9332 14.88804204207609
AO-27
1 22825U 93061C   25059.44578078  .00000385  00000-0  16435-3 0  9990
2 22825  98.7511 120.4383 0009214  54.3685 305.8354 14.30739270639259
FO-29
1 24278U 96046B   25059.45960552  .00000029  00000-0  68088-4 0  9990
2 24278  98.5860 326.6138 0348950 244.4774 111.9901 13.53238979409095
NOAA-15
1 25338U 98030A   25059.76875290  .00000468  00000-0  21037-3 0  9990
2 25338  98.5470  87.2757 0009175 296.8515  63.1728 14.26896844394027
GO-32
1 25397U 98043D   25059.53238965  .00000307  00000-0  15323-3 0  9999
2 25397  98.9599  36.6009 0002124 116.9265 243.2130 14.24263085384128
ISS
1 25544U 98067A   25059.54152977  .00022226  00000-0  40176-3 0  9996
2 25544  51.6353 125.1519 0006135 326.8326  33.2278 15.49597200498316
NO-44
1 26931U 01043C   25059.21184292  .00000738  00000-0  30752-3 0  9997
2 26931  67.0517  29.9108 0005880 265.4115  94.6315 14.31637024222592
SO-50
1 27607U 02058C   25059.56165239  .00003578  00000-0  47061-3 0  9999
2 27607  64.5551 152.2403 0044449 359.1048   0.9969 14.81049216194476
CO-55
1 27844U 03031E   25059.49438531  .00001058  00000-0  48081-3 0  9998
2 27844  98.6795  69.0650 0010719 118.1678 242.0585 14.23846803124256
CO-57
1 27848U 03031J   25059.46648379  .00000891  00000-0  41323-3 0  9998
2 27848  98.6823  69.1182 0010417 133.5333 226.6712 14.23203227123983
RS-22
1 27939U 03042A   25059.81395135  .00003378  00000-0  54782-3 0  9995
2 27939  98.3158 226.9116 0011033 333.5220 133.8952 14.71852860146003
NOAA-18
1 28654U 05018A   25059.75764808  .00000464  00000-0  26930-3 0  9992
2 28654  98.8488 140.3522 0014891  58.7729 301.4900 14.13529084 19509
CO-58
1 28895U 05043F   25059.35132869  .00005657  00000-0  94383-3 0  9995
2 28895  98.2313 202.5759 0013970 267.1147  92.8460 14.70290046 32061
CO-65
1 32785U 08021C   25059.52137525  .00013343  00000-0  10059-2 0  9998
2 32785  97.7756  30.1243 0010096 183.7713 176.3437 15.02548085913964
AAUSAT2
1 32788U 08021F   25059.49061511  .00162160  00000-0  26964-2 0  9992
2 32788  97.6061  51.9340 0004934  78.5011 281.6794 15.51464176917535
CO-66
1 32791U 08021J   25058.45989612  .00026829  00000-0  14542-2 0  9992
2 32791  97.7200  36.5576 0006228 133.3760 226.7991 15.14546447915093
RS-30
1 32953U 08025A   25059.80286523  .00000050  00000-0  28619-3 0  9996
2 32953  82.5007 289.8749 0018654 266.1183  93.7764 12.43159539761006
NOAA-19
1 33591U 09005A   25059.81839721  .00000423  00000-0  24961-3 0  9999
2 33591  99.0104 123.9096 0012772 289.1500  70.8289 14.13297464827877
SRMSAT
1 37841U 11058D   25059.37359080  .00000737  00000-0  25727-3 0  9997
2 37841  19.9728  46.9662 0011810  32.8168 113.6101 14.11373046690797
ZACUBE-1
1 39417U 13066B   25059.45027179  .00014221  00000-0  12800-2 0  9999
2 39417  97.7689  17.1844 0046917  32.1281 328.2783 14.94875576609791
Delfi-N3xt
1 39428U 13066N   25059.31445743  .00022529  00000-0  24049-2 0  9995
2 39428  97.8380 338.2516 0087742 335.0467  24.6518 14.85986722604027
GOMX-1
1 39430U 13066Q   25059.69978030  .00005484  00000-0  86302-3 0  9991
2 39430  97.6976 284.5119 0134490 154.6334 206.1556 14.66941060600617
LO-74
1 39440U 13066AA  25059.56165359  .00009206  00000-0  96107-3 0  9990
2 39440  97.8403   4.9836 0064729 151.6066 208.8703 14.88377481607604
AO-73
1 39444U 13066AE  25059.43559411  .00021327  00000-0  16973-2 0  9996
2 39444  97.7538  21.2841 0042141  10.5396 349.6700 14.99704498608412
DTUSAT-2
1 40030U 14033W   25059.38183691  .00019228  00000-0  13268-2 0  9992
2 40030  98.0451  26.5406 0011340  50.8436 309.3795 15.05787575581150
EO-80
1 40032U 14033Y   25059.67333580  .00016749  00000-0  11541-2 0  9997
2 40032  98.0330  26.6375 0008450 357.9533   2.1657 15.05895849581699
LILACSAT-2
1 40908U 15049K   25059.78832936  .00021173  00000-0  61557-3 0  9998
2 40908  97.5150  77.8852 0011042 151.9042 208.2799 15.35419408522744
IO-86
1 40931U 15052B   25038.81889873  .00001817  00000-0  15548-3 0  9993
2 40931   6.0001 108.1159 0012838 187.7041 172.2889 14.78568669506492
Horyu-4
1 41340U 16012D   25059.36535389  .00039723  00000-0  12998-2 0  9990
2 41340  30.9997  89.6326 0006908 102.3400 257.8017 15.30462616497237
Lapan A3
1 41603U 16040E   25059.80518041  .00007144  00000-0  25821-3 0  9990
2 41603  97.1393  68.4267 0009215 268.5481  91.4704 15.28707428482386
CAS-2T
1 41847U 16066G   25059.32872313  .00004508  00000-0  64695-3 0  9993
2 41847  98.4296 134.6632 0348708 124.6461 238.8128 14.43043053436410
CAS-4B
1 42759U 17034B   25059.77864962  .00068810  00000-0  12215-2 0  9998
2 42759  43.0108 196.4722 0018158 304.4498  55.4646 15.49145216426898
CAS-4A
1 42761U 17034D   25059.80393007  .00065832  00000-0  11466-2 0  9990
2 42761  43.0145 194.2170 0019335 310.4983  49.4192 15.49675755426917
TechnoSat
1 42829U 17042E   25059.73067305  .00008314  00000-0  66260-3 0  9990
2 42829  97.3888 233.3045 0011880 266.9036  93.0829 15.00526769415596
AO-91
1 43017U 17073E   25059.37240971  .00019619  00000-0  10452-2 0  9997
2 43017  97.5466 292.7709 0181627 150.3245 210.8436 15.02069572394002
S-Net D
1 43186U 18014G   25059.24989010  .00013116  00000-0  80780-3 0  9998
2 43186  97.5727 323.2544 0008357 201.2333 158.8551 15.10084417387070
S-Net B
1 43187U 18014H   25059.45286760  .00012212  00000-0  75263-3 0  9990
2 43187  97.5732 323.4217 0009259 196.1858 163.9077 15.10072392387105
S-Net A
1 43188U 18014J   25059.25059890  .00012982  00000-0  79944-3 0  9995
2 43188  97.5742 323.3587 0009094 197.6762 162.4152 15.10087846387077
S-Net C
1 43189U 18014K   25059.45503626  .00012104  00000-0  74579-3 0  9994
2 43189  97.5757 323.5579 0010949 190.8868 169.2126 15.10068969385653
Ten-Koh
1 43677U 18084G   25059.54702028  .00008298  00000-0  67845-3 0  9997
2 43677  98.0894 227.7812 0009837 241.0604 118.9632 14.99596795345095
PO-101
1 43678U 18084H   25059.79077758  .00005915  00000-0  51303-3 0  9995
2 43678  98.0936 232.1573 0008027 262.2410  97.7899 14.97449863345299
QO-100
1 43700U 18090A   25059.31642168  .00000142  00000-0  00000-0 0  9991
2 43700   0.0115 120.7906 0001268 246.0983 291.1759  1.00272143 22926
MinXSS-2
1 43758U 18099A   25059.45272307  .00034568  00000-0  15561-2 0  9991
2 43758  97.5162 125.4206 0013692 149.6578 210.5453 15.20916132341570
AO-95
1 43770U 18099N   25059.39445841  .00021460  00000-0  11733-2 0  9997
2 43770  97.5062 118.7185 0011360 197.8448 162.2386 15.14245809341224
RANGE-A
1 43773U 18099R   25059.57033138  .00011340  00000-0  74946-3 0  9994
2 43773  97.4629 110.9202 0012048 172.7488 187.3917 15.07493030340993
MOVE-II
1 43780U 18099Y   25059.59881508  .00111588  00000-0  23766-2 0  9994
2 43780  97.4803 130.1952 0004198 163.3883 196.7503 15.44512351342078
SNUSat 2
1 43782U 18099AA  25059.38864411  .00018782  00000-0  10904-2 0  9999
2 43782  97.4751 116.2525 0013686 140.4397 219.7835 15.12095049341192
SnugLite
1 43784U 18099AC  25059.37945486  .00022086  00000-0  11986-2 0  9995
2 43784  97.4564 115.6332 0004648 138.9598 221.1984 15.14547609341309
ITASat 1
1 43786U 18099AE  25059.55777254  .00015720  00000-0  94673-3 0  9995
2 43786  97.4720 116.2004 0014974 190.0922 170.0009 15.10790111341192
EAGLET 1
1 43790U 18099AJ  25059.38883763  .00010815  00000-0  71307-3 0  9993
2 43790  97.4909 116.2809 0012837 170.9231 189.2232 15.07585482340812
ESEO
1 43792U 18099AL  25059.56213315  .00005399  00000-0  41659-3 0  9993
2 43792  97.4578 111.0088 0011382 141.0423 219.1624 15.01923499340652
CSIM
1 43793U 18099AM  25059.84281299  .00111689  00000-0  23521-2 0  9998
2 43793  97.4981 132.4621 0006486 136.9441 223.2316 15.44833271341956
JO-97
1 43803U 18099AX  25059.41805733  .00025890  00000-0  13015-2 0  9993
2 43803  97.4813 119.5637 0009152 134.9946 225.2031 15.17194386341410
Suomi 100
1 43804U 18099AY  25059.41863306  .00022587  00000-0  11968-2 0  9999
2 43804  97.4882 119.1081 0014327 137.0677 223.1677 15.15314409341366
ISAT
1 43879U 18111D   25059.53423370  .00035837  00000-0  14736-2 0  9990
2 43879  97.6036 332.0730 0009736 177.0962 183.0333 15.24030670336257
UWE-4
1 43880U 18111E   25059.21932865  .00031484  00000-0  14070-2 0  9996
2 43880  97.5971 330.8542 0012438 194.7321 165.3554 15.21201653338192
Sparrow
1 43881U 18111F   25059.65391210  .00037914  00000-0  15163-2 0  9996
2 43881  97.6155 334.7177 0005928 216.5898 143.4935 15.24979174336374
Prox-1
1 44339U 19036A   25059.17909017  .00025093  00000-0  34705-2 0  9997
2 44339  23.9985   6.3611 0007181 353.9221   6.1188 14.76599181302998
SONATE
1 44400U 19038Q   25059.50982956  .00111010  00000-0  12921-2 0  9999
2 44400  97.7078  75.5435 0006476 249.3066 110.7497 15.61308614313667
Taurus 1
1 44530U 19059C   25059.83597555  .00017685  00000-0  34240-2 0  9990
2 44530  98.5928 194.6908 0009139 341.5459  18.5408 14.63342757289196
